• en France
  • Liste des pays
  • À 7 jours
  • Température de l'eau
  • Carte satellitaire
  • Carte météo
  • Widgets météo
  • user-avatar
    Se connecter

    Météo par heure à Korhogo

    Ce jour, 25 Février, Dimanche

    Heure Température Précipitation Vent Pression Humidité
    00:00 +28°C° 0 mm 2 m/s 725 mmHg 54%
    01:00 +28°C° 0 mm 1 m/s 725 mmHg 56%
    02:00 +28°C° 0 mm 1 m/s 725 mmHg 57%
    03:00 +27°C° 0 mm 1 m/s 725 mmHg 59%
    04:00 +27°C° 0 mm 1 m/s 725 mmHg 60%
    05:00 +27°C° 0 mm 1 m/s 725 mmHg 62%
    06:00 +26°C° 0 mm 1 m/s 725 mmHg 63%
    07:00 +28°C° 0 mm 1 m/s 725 mmHg 58%
    08:00 +29°C° 0 mm 2 m/s 726 mmHg 53%
    09:00 +30°C° 0 mm 2 m/s 726 mmHg 48%
    10:00 +34°C° 0 mm 2 m/s 726 mmHg 40%
    11:00 +36°C° 0 mm 1 m/s 726 mmHg 32%
    12:00 +39°C° 0 mm 1 m/s 726 mmHg 25%
    13:00 +40°C° 0 mm 1 m/s 725 mmHg 23%
    14:00 +40°C° 0 mm 1 m/s 724 mmHg 22%
    15:00 +41°C° 0 mm 1 m/s 724 mmHg 21%
    16:00 +40°C° 0 mm 1 m/s 723 mmHg 22%
    17:00 +39°C° 0 mm 2 m/s 723 mmHg 23%
    18:00 +38°C° 0 mm 2 m/s 723 mmHg 24%
    19:00 +37°C° 0,1 mm 2 m/s 724 mmHg 28%
    20:00 +35°C° 0,1 mm 2 m/s 724 mmHg 32%
    21:00 +34°C° 0,1 mm 2 m/s 724 mmHg 36%
    22:00 +32°C° 0 mm 2 m/s 725 mmHg 38%
    23:00 +32°C° 0 mm 2 m/s 725 mmHg 40%

    Demain, 26 Février, Lundi

    Heure Température Précipitation Vent Pression Humidité
    00:00 +31°C° 0 mm 2 m/s 725 mmHg 42%
    01:00 +30°C° 0 mm 2 m/s 725 mmHg 44%
    02:00 +30°C° 0 mm 2 m/s 724 mmHg 46%
    03:00 +29°C° 0 mm 2 m/s 724 mmHg 48%
    04:00 +29°C° 0,1 mm 2 m/s 724 mmHg 50%
    05:00 +28°C° 0,1 mm 2 m/s 724 mmHg 52%
    06:00 +28°C° 0,1 mm 2 m/s 724 mmHg 54%
    07:00 +29°C° 0 mm 2 m/s 724 mmHg 51%
    08:00 +31°C° 0 mm 2 m/s 725 mmHg 48%
    09:00 +32°C° 0 mm 2 m/s 726 mmHg 45%
    10:00 +36°C° 0 mm 2 m/s 725 mmHg 39%
    11:00 +37°C° 0 mm 1 m/s 725 mmHg 32%
    12:00 +41°C° 0 mm 1 m/s 725 mmHg 25%
    13:00 +40°C° 0 mm 1 m/s 724 mmHg 25%
    14:00 +40°C° 0 mm 2 m/s 724 mmHg 25%
    15:00 +39°C° 0 mm 2 m/s 723 mmHg 24%
    16:00 +39°C° 0 mm 2 m/s 723 mmHg 26%
    17:00 +38°C° 0 mm 3 m/s 723 mmHg 27%
    18:00 +38°C° 0 mm 3 m/s 723 mmHg 29%
    19:00 +36°C° 0 mm 3 m/s 723 mmHg 33%
    20:00 +35°C° 0 mm 3 m/s 724 mmHg 37%
    21:00 +34°C° 0 mm 3 m/s 724 mmHg 40%
    22:00 +33°C° 0,3 mm 3 m/s 725 mmHg 45%
    23:00 +31°C° 0,3 mm 3 m/s 725 mmHg 50%

    Après-demain, 27 Février, Mardi

    Heure Température Précipitation Vent Pression Humidité
    00:00 +30°C° 0,3 mm 3 m/s 725 mmHg 56%
    01:00 +30°C° 0,1 mm 3 m/s 724 mmHg 59%
    02:00 +29°C° 0,1 mm 3 m/s 724 mmHg 62%
    03:00 +29°C° 0,1 mm 3 m/s 724 mmHg 65%
    04:00 +28°C° 0 mm 3 m/s 724 mmHg 68%
    05:00 +28°C° 0 mm 3 m/s 724 mmHg 71%
    06:00 +27°C° 0 mm 3 m/s 724 mmHg 73%
    07:00 +28°C° 0 mm 3 m/s 725 mmHg 70%
    08:00 +29°C° 0 mm 3 m/s 726 mmHg 66%
    09:00 +30°C° 0 mm 3 m/s 726 mmHg 62%
    10:00 +33°C° 0 mm 3 m/s 726 mmHg 53%
    11:00 +36°C° 0 mm 3 m/s 726 mmHg 44%
    12:00 +38°C° 0 mm 2 m/s 726 mmHg 35%
    13:00 +38°C° 0 mm 2 m/s 725 mmHg 33%
    14:00 +39°C° 0 mm 2 m/s 724 mmHg 31%
    15:00 +39°C° 0 mm 2 m/s 723 mmHg 28%
    16:00 +38°C° 0,1 mm 2 m/s 723 mmHg 32%
    17:00 +37°C° 0,1 mm 2 m/s 723 mmHg 35%
    18:00 +36°C° 0,1 mm 2 m/s 723 mmHg 39%
    19:00 +34°C° 0,2 mm 2 m/s 724 mmHg 44%
    20:00 +33°C° 0,2 mm 3 m/s 724 mmHg 49%
    21:00 +31°C° 0,2 mm 3 m/s 725 mmHg 55%
    22:00 +30°C° 0,3 mm 3 m/s 725 mmHg 57%
    23:00 +30°C° 0,3 mm 2 m/s 725 mmHg 60%

    28 Février, Mercredi

    Heure Température Précipitation Vent Pression Humidité
    00:00 +30°C° 0,3 mm 2 m/s 726 mmHg 62%
    01:00 +29°C° 0 mm 2 m/s 725 mmHg 63%
    02:00 +29°C° 0 mm 2 m/s 725 mmHg 65%
    03:00 +29°C° 0 mm 2 m/s 724 mmHg 66%
    04:00 +28°C° 0 mm 2 m/s 724 mmHg 68%
    05:00 +28°C° 0 mm 1 m/s 724 mmHg 69%
    06:00 +27°C° 0 mm 1 m/s 724 mmHg 71%
    07:00 +28°C° 0 mm 1 m/s 725 mmHg 67%
    08:00 +29°C° 0 mm 1 m/s 725 mmHg 63%
    09:00 +30°C° 0 mm 2 m/s 726 mmHg 58%
    10:00 +33°C° 0 mm 1 m/s 726 mmHg 50%
    11:00 +36°C° 0 mm 1 m/s 726 mmHg 41%
    12:00 +40°C° 0 mm 1 m/s 726 mmHg 32%
    13:00 +40°C° 0 mm 1 m/s 725 mmHg 30%
    14:00 +41°C° 0 mm 1 m/s 724 mmHg 27%
    15:00 +41°C° 0 mm 2 m/s 723 mmHg 24%
    16:00 +40°C° 0 mm 2 m/s 723 mmHg 25%
    17:00 +39°C° 0 mm 2 m/s 723 mmHg 27%
    18:00 +37°C° 0 mm 1 m/s 723 mmHg 29%
    19:00 +36°C° 0,1 mm 1 m/s 724 mmHg 31%
    20:00 +35°C° 0,1 mm 1 m/s 724 mmHg 34%
    21:00 +34°C° 0,1 mm 1 m/s 725 mmHg 37%
    22:00 +33°C° 0 mm 1 m/s 725 mmHg 39%
    23:00 +33°C° 0 mm 1 m/s 725 mmHg 40%

    1 Mars, Jeudi

    Heure Température Précipitation Vent Pression Humidité
    00:00 +32°C° 0 mm 1 m/s 725 mmHg 42%
    01:00 +32°C° 0 mm 1 m/s 724 mmHg 45%
    02:00 +31°C° 0 mm 1 m/s 724 mmHg 47%
    03:00 +30°C° 0 mm 2 m/s 723 mmHg 50%
    04:00 +30°C° 0 mm 2 m/s 724 mmHg 54%
    05:00 +29°C° 0 mm 2 m/s 724 mmHg 58%
    06:00 +29°C° 0 mm 3 m/s 724 mmHg 61%
    07:00 +30°C° 0 mm 3 m/s 725 mmHg 60%
    08:00 +30°C° 0 mm 3 m/s 725 mmHg 59%
    09:00 +31°C° 0 mm 3 m/s 726 mmHg 58%
    10:00 +35°C° 0 mm 2 m/s 726 mmHg 49%
    11:00 +38°C° 0 mm 2 m/s 725 mmHg 40%
    12:00 +40°C° 0 mm 1 m/s 725 mmHg 32%
    13:00 +41°C° 0 mm 2 m/s 724 mmHg 28%
    14:00 +41°C° 0 mm 2 m/s 723 mmHg 25%
    15:00 +42°C° 0 mm 3 m/s 723 mmHg 22%
    16:00 +40°C° 0 mm 2 m/s 723 mmHg 23%
    17:00 +39°C° 0 mm 2 m/s 723 mmHg 24%
    18:00 +39°C° 0 mm 2 m/s 723 mmHg 25%
    19:00 +36°C° 0 mm 1 m/s 723 mmHg 27%
    20:00 +35°C° 0 mm 1 m/s 724 mmHg 30%
    21:00 +34°C° 0 mm 1 m/s 724 mmHg 32%
    22:00 +34°C° 0 mm 2 m/s 724 mmHg 37%
    23:00 +34°C° 0 mm 3 m/s 725 mmHg 42%

    2 Mars, Vendredi

    Heure Température Précipitation Vent Pression Humidité
    00:00 +33°C° 0 mm 4 m/s 725 mmHg 47%
    01:00 +32°C° 0 mm 4 m/s 724 mmHg 54%
    02:00 +30°C° 0 mm 4 m/s 724 mmHg 60%
    03:00 +29°C° 0 mm 4 m/s 724 mmHg 66%
    04:00 +29°C° 0 mm 3 m/s 724 mmHg 68%
    05:00 +28°C° 0 mm 3 m/s 724 mmHg 71%
    06:00 +28°C° 0 mm 3 m/s 724 mmHg 74%
    07:00 +29°C° 0 mm 3 m/s 725 mmHg 70%
    08:00 +30°C° 0 mm 3 m/s 725 mmHg 65%
    09:00 +31°C° 0 mm 3 m/s 725 mmHg 61%
    10:00 +35°C° 0 mm 2 m/s 725 mmHg 51%
    11:00 +37°C° 0 mm 2 m/s 725 mmHg 42%
    12:00 +40°C° 0 mm 1 m/s 725 mmHg 32%
    13:00 +41°C° 0 mm 2 m/s 724 mmHg 28%
    14:00 +41°C° 0 mm 2 m/s 724 mmHg 24%
    15:00 +42°C° 0 mm 2 m/s 723 mmHg 19%
    16:00 +41°C° 0 mm 2 m/s 723 mmHg 20%
    17:00 +40°C° 0 mm 2 m/s 723 mmHg 21%
    18:00 +39°C° 0 mm 2 m/s 723 mmHg 22%
    19:00 +38°C° 0 mm 2 m/s 723 mmHg 25%
    20:00 +37°C° 0 mm 2 m/s 724 mmHg 27%
    21:00 +36°C° 0 mm 2 m/s 724 mmHg 29%
    22:00 +36°C° 0,3 mm 2 m/s 724 mmHg 33%
    23:00 +35°C° 0,3 mm 2 m/s 724 mmHg 38%
    Voir plus